This is the latest recevied weather packets stored in our database for station/object N7WSS. If no packets are shown the sender has not sent any weather packets the latest 10 day(s).
| Time | Temp. | Humidity | Pressure | Rain* | Wind** | Luminosity | Snow |
|---|---|---|---|---|---|---|---|
| 1787872814 | 42.22° C | 23% | 1010.7 hPa | 0 mm | - | - | - |
| 1787872510 | 42.78° C | 23% | 1010.7 hPa | 0 mm | - | - | - |
| 1787872205 | 42.78° C | 23% | 1010.7 hPa | 0 mm | - | - | - |
| 1787871904 | 42.22° C | 23% | 1010.7 hPa | 0 mm | - | - | - |
| 1787871599 | 41.67° C | 23% | 1010.4 hPa | 0 mm | - | - | - |
| 1787871295 | 41.11° C | 23% | 1010.3 hPa | 0 mm | - | - | - |
| 1787870990 | 41.11° C | 24% | 1010.4 hPa | 0 mm | - | - | - |
| 1787870690 | 41.67° C | 24% | 1010.4 hPa | 0 mm | - | - | - |
| 1787870390 | 41.67° C | 24% | 1010.5 hPa | 0 mm | - | - | - |
| 1787870085 | 41.67° C | 24% | 1010.6 hPa | 0 mm | - | - | - |
| 1787869784 | 41.67° C | 24% | 1010.8 hPa | 0 mm | - | - | - |
| 1787869479 | 41.67° C | 24% | 1010.9 hPa | 0 mm | - | - | - |
| 1787869179 | 40.56° C | 25% | 1011.1 hPa | 0 mm | - | - | - |
| 1787868879 | 40.56° C | 25% | 1011.4 hPa | 0 mm | - | - | - |
| 1787868577 | 41.67° C | 24% | 1011.3 hPa | 0 mm | - | - | - |
| 1787868277 | 41.11° C | 25% | 1011.4 hPa | 0 mm | - | - | - |
| 1787867972 | 40.56° C | 26% | 1011.5 hPa | 0 mm | - | - | - |
| 1787867668 | 40.56° C | 25% | 1011.7 hPa | 0 mm | - | - | - |
| 1787867368 | 40.56° C | 26% | 1011.7 hPa | 0 mm | - | - | - |
| 1787867064 | 40.56° C | 26% | 1011.7 hPa | 0 mm | - | - | - |
| 1787866759 | 39.44° C | 27% | 1011.7 hPa | 0 mm | - | - | - |
| 1787866458 | 40° C | 26% | 1011.7 hPa | 0 mm | - | - | - |
| 1787866157 | 40.56° C | 27% | 1011.9 hPa | 0 mm | - | - | - |
| 1787865852 | 39.44° C | 27% | 1012 hPa | 0 mm | - | - | - |
| 1787865548 | 40.56° C | 27% | 1012.1 hPa | 0 mm | - | - | - |
* Rain latest hour (hover to see other rain measurements)
** Current wind speed in m/s (hover to see current wind gust speed)